FENGYUN 1C DEB

Satellite information

Favourite Embed

Satellite Type and Status

DEBRISIN ORBIT

Key statistics

Satellite FENGYUN 1C DEB at a glance.

Uptime

9668

Days in orbit

Revolutions

≈ 14.3

Per day

Orbit

SSO

Sun Synchronous Orbit

Inclination

98.4

Latest

Satellite identification and parameters

Extended collection of information and parameters for FENGYUN 1C DEB.

Object identification

Identified? True

Debris? True

Object name: FENGYUN 1C DEB

International designator: 1999-025LD

Object number (NORAD): 29979

Object ID (CCSDS): 29979

Country: PEOPLES REPUBLIC OF CHINA (PRC)

Current information (Y/N): Y

RCS size: MEDIUM

Orbital parameters

Period: 100.995 minutes

Inclination: 98.3761 deg

SMA: 7183.913 km

Apoapsis: 882.105 km

Periapsis: 729.451 km

RAAN: 325.7924 deg

Eccentricy: 0.0106247

Argument of periapsis: 299.4961 deg

Mean anomaly: 181.7985 deg

Mean motion: 14.25808471 rev/day

Mean motion (dot): 0.00001449 rev/day2

B* drag term: 0.00059140964 1/REarth

Two-line elements (TLE)

Creation date: Oct. 28, 2025, 2:18 a.m.

Reference frame: TEME

Reference center: EARTH

Epoch: Oct. 27, 2025, 12:54 p.m. UTC

TLE line 0: 0 FENGYUN 1C DEB

TLE line 1: 1 29979U 99025LD 25300.53802928 .00001449 00000-0 59141-3 0 9999

TLE line 2: 2 29979 98.3761 325.7924 0106247 299.4961 181.7985 14.25808471974159

Live tracking on map

Real-time ground track for satellite FENGYUN 1C DEB.

In-orbit conjunctions

A list of the most updated potential collisions computed for object FENGYUN 1C DEB.

Target Orbit TCA Probability of collision Miss distance Type
METEOR 2-5 DEB LEO 2025-08-14 08:55:55 0.001137375 33.0 (m) DEBRIS
THOR ABLESTAR DEB LEO 2025-04-21 21:45:50 0.0003756434 196.0 (m) DEBRIS
CZ-6A DEB LEO 2025-03-06 09:27:10 0.000441709 20.0 (m) DEBRIS

Associated space launch

Chinese polar orbiting meteorological satellite

FENGYUN 1C DEB was lifted into orbit during the mission ‘Long March 4B | Feng Yun 1C’, on board a Long March 4B space rocket.

The launch took place on May 10, 1999, 1:33 a.m. from Launch Complex 7.

For more information about the launch, click the button.

Launch to space Long March 4B | Feng Yun 1C
Long March 4B | Feng Yun 1C

Agency: N/A

Status: Launch Successful

Launch date: May 10, 1999, 1:33 a.m. UTC

Rocket: Long March 4B

Launch pad: Launch Complex 7

Location: Taiyuan Satellite Launch Center, People's Republic of China

...

Latest news about this satellite

There are no fresh news available about this satellite. Check back as we update our databases every day.


Newsletter sign-up

Weekly statistics, charts and insights to help you stay on top of the space industry.